Location: Anga�s
(43.2333°N, 0.2500°W)
Time: 10:55:31
(UTC+00:00)

Daily predictions for brighter satellites

Satellite Brightness Start Highest point End
(mag) Time Altitude Azimuth Time Altitude Azimuth Time Altitude Azimuth
NOSS 2-2 (C) 4.5 16:45:07 10° NNW 16:50:25 67° NE 16:57:53 10° SE
Cosmos 1092 Rocket 4.0 16:47:45 10° N 16:54:07 70° E 17:00:23 10° SSE
Cosmos 1898 Rocket 3.9 16:49:00 10° NNW 16:54:13 70° WSW 16:59:22 10° S
ATLAS CENTAUR R/B 3.5 16:44:55 10° SW 16:56:24 66° NW 17:00:57 10° NE
Cosmos 1939 Rocket 3.2 16:53:49 10° SE 16:57:43 45° ENE 17:01:36 10° N
USA 267 3.4 16:51:41 10° NE 16:58:13 69° SE 17:04:43 10° SW
Cosmos 1151 Rocket 3.8 16:56:16 10° SSE 17:00:07 32° E 17:04:01 10° NNE
USA 306 4.3 16:56:50 10° NW 17:00:12 22° NNE 17:03:33 10° ENE
Cosmos 1782 2.8 16:58:12 10° S 17:02:09 65° E 17:06:06 10° NNE
Cosmos 1633 Rocket 3.9 16:58:49 10° NNE 17:02:38 28° ENE 17:06:26 10° SE
COSMO-SKYMED 1 4.2 17:00:31 10° NE 17:03:03 15° E 17:05:36 10° SE
Cosmos 1666 3.5 17:01:09 10° NNE 17:04:24 28° ENE 17:07:38 10° SE
Cosmos 2360 Rocket 3.9 17:03:11 10° NNE 17:05:32 12° NE 17:07:53 10° ENE
ISS -3.6 17:02:50 10° WNW 17:06:14 78° SW 17:09:36 10° SE
SeaSat 1 4.5 17:06:10 10° N 17:09:53 22° NW 17:13:35 10° W
NOAA 12 4.2 17:04:57 10° SSE 17:10:16 89° W 17:15:37 10° NNW
SL-08 R/B 3.9 17:06:08 10° N 17:10:44 57° WNW 17:15:15 10° SSW
Cosmos 1818 4.0 17:06:35 10° NNW 17:11:48 41° NE 17:16:56 10° ESE
CZ-2C R/B 3.2 17:11:22 10° SW 17:14:47 22° SSE 17:18:07 10° ESE
Cosmos 2279 Rocket 4.2 17:10:06 10° SSE 17:16:03 51° E 17:22:02 10° NNE
Meteor 2-14 Rocket 4.4 17:10:50 10° N 17:16:59 81° E 17:23:02 10° S
Cosmos 841 Rocket 3.8 17:11:57 10° SSW 17:17:05 70° WNW 17:22:14 10° NNE
ATLAS 5 CENTAUR R/B 3.4 17:11:10 10° NW 17:17:18 23° NNE 17:19:38 13° ENE
Meteor PRIRODA 4.3 17:13:56 10° S 17:17:30 60° W 17:21:06 10° NNW
Cosmos 1627 Rocket 4.5 17:12:22 10° N 17:18:33 90° NW 17:24:40 10° S
USA 307 4.2 17:17:25 10° NW 17:20:55 24° NNE 17:23:32 14° ENE
CZ-4C R/B 3.0 17:15:36 10° NW 17:22:56 76° NE 17:31:28 10° SE
Lacrosse 5 rocket 1.6 17:20:56 10° NW 17:24:41 42° NE 17:28:38 10° ESE
Cosmos 1697 Rocket 4.2 17:20:53 10° NW 17:26:05 40° WSW 17:31:17 10° S
Cosmos 372 Rocket 4.2 17:20:59 10° NNW 17:26:15 79° WSW 17:31:29 10° SSE
Cosmos 2208 Rocket 4.2 17:21:12 10° S 17:26:31 61° ESE 17:31:53 10° NNE
Tiangong 3.6 17:27:48 10° SSE 17:28:36 11° SSE 17:29:24 10° SE
Cosmos 2322 Rocket 3.1 17:24:14 10° N 17:28:59 26° NE 17:33:41 10° ESE
AQUARIUS 4.1 17:24:32 10° SSE 17:29:00 77° ENE 17:33:31 10° N
Cosmos 1328 Rocket 3.8 17:25:51 10° SSE 17:30:07 49° E 17:34:24 10° NNE
USA 234 3.4 17:24:37 10° ESE 17:30:56 55° NNE 17:37:17 10° NW
Cosmos 1666 Rocket 3.5 17:27:52 10° N 17:32:18 71° E 17:36:40 10° SSE
Cosmos 1980 Rocket 2.5 17:26:50 10° NNW 17:32:29 71° WSW 17:38:04 10° SSE
CORIOLIS 4.2 17:29:04 10° SSE 17:34:28 87° ENE 17:39:57 10° NNW
Cosmos 1470 Rocket 4.1 17:31:43 10° N 17:35:53 37° ENE 17:40:02 10° SE
Cosmos 1544 4.1 17:32:53 10° NNE 17:35:55 25° ENE 17:38:56 10° SE
Cosmos 1812 2.7 17:32:07 10° S 17:35:57 85° W 17:39:49 10° N
X-37B 1.2 17:33:44 10° SW 17:36:27 37° SSE 17:37:49 22° E
PSLV R/B 3.6 17:33:30 10° SSE 17:37:08 64° ENE 17:40:52 10° N
Cosmos 1125 Rocket 4.0 17:32:30 10° N 17:37:23 38° ENE 17:42:17 10° SE
DEBRIS 4.2 17:35:48 10° SSE 17:37:40 18° ESE 17:38:34 16° E
H-2A R/B 2.0 17:32:53 10° SSE 17:37:53 57° ENE 17:42:48 10° N
Cosmos 1634 Rocket 4.4 17:32:11 10° SSW 17:38:28 69° W 17:44:48 10° N
Cosmos 2026 Rocket 4.4 17:32:47 10° NNW 17:38:50 65° W 17:44:48 10° S
Okean O Rocket 2.3 17:35:53 10° SE 17:39:49 31° ENE 17:43:44 10° N
Meteor 2-8 Rocket 4.5 17:33:57 10° S 17:39:58 60° E 17:46:01 10° NNE
Meteor 1-11 Rocket 4.2 17:37:45 10° N 17:42:59 36° ENE 17:48:16 10° SE
USA 308 3.9 17:40:04 10° NW 17:43:48 28° NNE 17:45:21 22° ENE
Sich 1 4.4 17:43:36 10° NNW 17:47:39 40° W 17:51:42 10° SSW
ARGOS 3.4 17:44:42 10° SE 17:49:48 45° ENE 17:54:56 10° N
SL-16 R/B 2.4 17:44:23 10° NNW 17:49:51 46° ENE 17:55:17 10° SE
Cosmos 2082 Rocket 3.2 17:44:56 10° SW 17:50:21 45° WNW 17:55:48 10° NNE
SKYMED 2 3.8 17:47:47 13° NNE 17:51:27 48° E 17:55:38 10° S
SMAP 4.0 17:48:46 10° S 17:53:17 51° W 17:57:50 10° NNW
Meteor 1-5 Rocket 4.4 17:49:07 10° NNW 17:55:06 82° W 18:00:56 10° S
deb Chang Zheng 4 3.7 17:51:09 10° SSE 17:55:18 50° ENE 17:59:29 10° N
COSMOS 2455 4.2 17:53:21 10° WSW 17:58:50 36° NW 18:04:21 10° NNE
USA 305 3.4 18:04:19 10° NW 18:08:19 39° NNE 18:08:52 37° NE
Cosmos 2333 Rocket 3.7 18:05:15 10° N 18:08:05 18° NNE 18:08:05 18° NNE
Cosmos 1356 Rocket 3.4 18:06:25 10° N 18:10:35 56° ENE 18:14:47 10° SSE
CZ-2C R/B 2.4 18:07:27 10° NNE 18:12:40 81° ESE 18:17:50 10° S
Aureole 3 Rocket 3.6 18:12:12 10° SSE 18:16:30 53° E 18:22:32 10° NNE
Cosmos 2219 Rocket 4.0 18:13:22 10° N 18:15:05 15° NNE 18:15:05 15° NNE
Cosmos 1515 Rocket 3.5 18:12:47 10° S 18:17:13 86° E 18:20:26 19° N
Cosmos 44 Rocket 3.7 18:13:04 10° NW 18:17:54 61° WSW 18:22:32 10° SSE
Cosmos 1655 Rocket 3.9 18:12:12 10° N 18:18:39 83° E 18:24:59 10° S
Cosmos 921 Rocket 3.5 18:15:38 10° SSW 18:19:45 56° WNW 18:22:47 18° N
CZ-4 R/B 4.3 18:20:25 10° SSE 18:24:32 87° E 18:28:42 10° NNW
CZ-4B R/B 3.5 18:27:54 10° S 18:33:15 64° WSW 18:38:34 10° NNW
COSMO-SKYMED 1 3.3 18:36:23 17° N 18:39:30 51° WNW 18:43:42 10° SSW
USA 306 3.4 18:36:31 10° NW 18:39:52 48° NNW 18:39:52 48° NNW
USA 267 4.0 18:37:47 26° NNE 18:41:02 45° NNW 18:47:09 10° W
Landsat 5 3.6 18:41:36 58° NNW 18:42:09 67° WNW 18:46:02 10° SSW
ISS -0.3 18:42:01 10° WSW 18:42:30 10° SW 18:42:59 10° SW
APEX 4.5 18:39:25 10° SW 18:42:44 31° WNW 18:43:02 30° NW
Meteor 1-27 Rocket 3.6 18:37:36 10° S 18:43:07 86° W 18:46:30 25° N
Genesis I 4.5 18:40:56 10° SSW 18:43:13 33° S 18:43:13 33° S
Cosmos 1833 4.4 18:40:24 10° S 18:45:04 49° SE 18:45:04 49° SE
Cosmos 2360 Rocket 2.2 18:45:06 10° NNW 18:50:07 59° NNE 18:50:07 59° NNE
CZ-2C R/B 3.0 18:50:10 10° WSW 18:53:23 25° SSW 18:53:23 25° SSW
Cosmos 2237 4.1 18:48:28 10° NNW 18:54:13 90° WSW 18:55:53 48° SSE
DMSP B5D2-2 4.0 19:00:33 77° S 19:00:33 77° S 19:05:24 10° SSW
SL-08 RB Rocket 4.4 18:56:41 10° S 19:01:12 54° W 19:05:43 10° NNW
USA 307 4.2 18:57:06 10° NW 18:59:35 34° NW 18:59:35 34° NW
Lacrosse 5 rocket 3.2 19:00:13 10° WNW 19:03:39 27° SW 19:04:38 25° SSW
Tiangong 4.2 19:01:52 10° SW 19:02:20 13° SW 19:02:20 13° SW
X-37B 4.1 19:08:59 10° W 19:09:02 10° W 19:09:02 10° W
Cosmos 2322 Rocket 2.8 19:07:47 10° NNW 19:13:21 54° WSW 19:17:09 20° S
USA 234 3.9 19:10:00 23° SSE 19:13:58 51° SW 19:20:20 10° WNW
Okean O Rocket 3.7 19:12:23 10° SSW 19:16:07 26° W 19:19:54 10° NW
NOSS 3-4 (A) 4.5 19:11:30 10° NNW 19:16:19 39° N 19:16:19 39° N
NOSS 3-4 (C) 4.5 19:11:37 10° NNW 19:16:24 39° N 19:16:24 39° N
Cosmos 1867 4.3 19:13:36 10° WSW 19:18:51 47° NW 19:19:09 46° NW
ATLAS 2AS CENTAUR R/B 4.2 19:14:48 10° NNW 19:18:44 23° N 19:18:44 23° N
NOSS 3-3 (A) 4.2 19:20:22 10° SW 19:25:51 62° NW 19:25:51 62° NW
NOSS 3-3 (C) 4.1 19:20:27 10° SW 19:25:56 62° WNW 19:25:56 62° WNW
SL-16 R/B 4.1 19:29:00 10° NW 19:33:40 27° WSW 19:38:19 10° SSW
Cosmos 2333 Rocket 4.3 19:48:33 10° NNW 19:50:07 19° NNW 19:50:07 19° NNW
